STARLINK-11443, 62512

Orbit data source: Space-Track

STARLINK-11443, 62512 is a payload satellite owned by SpaceX/Seattle (US) in LEO that was launched on Wed, 08 Jan 2025 UTC via an FALCON 9 launch vehicle from the Air Force Eastern Test Range (AFETR). Payload-class satellites include a variety of spacecraft equipped with specific instruments for various scientific and technological missions. These include communications satellites like Starlink; space stations such as the ISS; scientific satellites like the Hubble; Earth observation satellites from companies like Planet Labs, Umbra, and HawkEye 360; GPS; miniature CubeSats for education and research; and military/defense satellites.

Loading next visibility...
Identifier
62512, 2025-004B
Orbit
LEO
Country
Flag of USUS
Related business
Manufacturer
SpaceX/Seattle
Mission
Operational Commercial Communications
Bus & Motor
STARLINK V2MD, Unknown motor
Mass
960 kg wet, ~910 kg dry
Launch date (UTC)
2025-01-08 (1 year ago)
Launch vehicle
FALCON 9
Launch site
Air Force Eastern Test Range (AFETR)
Object type
Payload
Rocket body
Debris
Shape & HBR
Box + 2 Pan, 18.1 m
Radar Cross Section
36.964 m², Large (>1 m²)

Expand to show TLE details & history
Last TLE update: 17 hours ago

TLE from 17 hours ago
0 STARLINK-11443
1 62512U 25004B   26125.59550818  .00216461  00000-0  16422-2 0  9991
2 62512  43.0024  88.1414 0001431  36.3483 323.7481 15.70907692 76156
Epoch: 2026-05-05T14:17Z
TLE epoch observation values (Epoch: 2026-05-05T14:17:31.906Z)
Latitude
-0.00008°
Longitude
10.29028°
Altitude
355.296 km
Speed
7.698 km/s
True Right ascension
05h 52m 33s
True Declination
0° 00' 00"
Sunlit
Object was in daylight at epoch
Visualization orbit readout
Latitude
Unknown
Longitude
Unknown
Altitude
Unknown
Speed
Unknown
Apparent Right ascension
Unknown
Apparent Declination
Unknown
Sunlit
N/A
Visualization observer readout
Local Sidereal Time
14:51:53
Azimuth
Unknown
Elevation
Unknown
Doppler factor
Unknown
Orbital elements
Apogee altitude
359.247 km
Perigee altitude
357.319 km
Semi-major axis
6,736.42 km
Eccentricity
0.00014
Inclination
43.0024°
RAAN
88.1414°
Arg. of periapsis
36.3483°
True anomaly
323.7384°
Mean anomaly
323.7481°
Eccentric anomaly
323.74325°
Mean motion
3.92554 °/min
Orbital period
91.71 mins
BSTAR
0.0016422
Loading maneuver chart data...
Computing Atmospheric mass density...
Loading historical data...
Loading historical data...
Loading historical data...
Loading historical data...
Loading historical data...
Loading historical data...
Loading historical data...

Documentation

Showing up to 5 results
|